Pagina principale
METAR-TAF:

METAR-TAF

Aeroporti :

Albenga, Italia

Aeroporto di Albenga

latitudine: 44-03N, longitudine: 008-07E, altezza: 45 m

Osservazione

Il bollettino è stato emesso 50 minuti fa, alle 12:50 UTC
Vento 7 kt da sud/sud-ovest, variando fra sud e ovest/sud-ovest
Temperature 22°C
Umidità 33%
Pressione 1010 hPa
Visibilità 10 km o più
Poco nuvoloso ad un'altezza di 5000 ft

METAR: LIMG 191250Z 21007KT 170V240 9999 FEW050 22/05 Q1010

Ora: 15:40 (13:40 UTC)


TAF: mancante

Osservazioni e previsioni meteorologiche di più di 4000 aeroporti (messaggi METAR e TAF).

Le stazioni disponibili sono rappresentate dai dischi gialli e rossi sulla carta.

Puntare il mouse per vedere il nome della stazione.

Clicca sopra per visualizzare le osservazioni e previsioni meteorologiche.

Per cambiare la mappa : fare clic sui pulsanti verdi con una croce nera per ingrandire, il pulsante verde con un trattino per diminuire, o sulla freccia verde per le mappe adiacenti.


METAR-TAF: